Weather History for Asheville, NC

Change the Weather History Date:

Monday, January 21, 2013

  Actual Average Record
Temperature  
Mean Temperature 38 °F 37 °F  
Max Temperature 51 °F 48 °F 72 °F (1927)
Min Temperature 24 °F 27 °F -16 °F (1985)
Degree Days  
Heating Degree Days 27 28  
Month to date heating degree days 425 588  
Since 1 July heating degree days 1982 2249  
Cooling Degree Days 0 0  
Month to date cooling degree days 0 0  
Year to date cooling degree days 0 0  
Moisture  
Dew Point 21 °F    
Average Humidity 60    
Maximum Humidity 92    
Minimum Humidity 28    
Precipitation  
Precipitation 0.00 in 0.12 in 1.62 in (1959)
Month to date precipitation 5.71 2.46  
Year to date precipitation 5.71 2.46  
Snow  
Snow 0.00 in 0.20 in 4.60 in (1983)
Month to date snowfall 0.0 2.9  
Since 1 July snowfall T 3.9  
Snow Depth 0.00 in    
Sea Level Pressure  
Sea Level Pressure 30.05 in    
Wind  
Wind Speed 7 mph (North)    
Max Wind Speed 20 mph    
Max Gust Speed 26 mph    
Visibility 10 miles    
Events      
T = Trace of Precipitation, MM = Missing Value Source: NWS Daily Summary

Daily Weather History Graph

Daily Weather History Graph

Search for Another Location

Airport:

Trip Planner

Search our weather history database for the weather conditions in past years. The results will help you decide how hot, cold, wet, or windy it might be!

Date:

Astronomy

Jan. 21, 2013 Rise Set
Actual Time 7:36 AM EST 5:47 PM EST
Civil Twilight 7:09 AM EST 6:14 PM EST
Nautical Twilight 6:38 AM EST 6:45 PM EST
Astronomical Twilight 6:07 AM EST 7:15 PM EST
Moon 1:26 PM EST (1/21) 3:03 AM EST (1/21)
Length of Visible Light 11h 05m
Length of Day
10h 10m
Waxing Gibbous, 75% of the Moon is Illuminated
Jan 21
Waxing Gibbous
Jan 26
Full
Feb 3
Last Quarter
Feb 10
New
Feb 17
First Quarter

Hourly Weather History & Observations

Time (EST) Temp. Windchill Dew Point Humidity Pressure Visibility Wind Dir Wind Speed Gust Speed Precip Events Conditions
12:54 AM 32.0 °F - 28.0 °F 85% 30.08 in 10.0 mi Calm Calm - N/A   Clear
1:54 AM 30.0 °F - 27.0 °F 88% 30.09 in 10.0 mi Calm Calm - N/A   Clear
2:54 AM 28.9 °F 25.2 °F 26.1 °F 89% 30.09 in 10.0 mi NNW 3.5 mph - N/A   Clear
3:54 AM 28.0 °F - 25.0 °F 88% 30.08 in 10.0 mi Calm Calm - N/A   Clear
4:54 AM 28.0 °F - 25.0 °F 88% 30.07 in 10.0 mi Calm Calm - N/A   Clear
5:54 AM 27.0 °F - 24.1 °F 89% 30.07 in 10.0 mi Calm Calm - N/A   Clear
6:54 AM 27.0 °F - 24.1 °F 89% 30.07 in 10.0 mi Calm Calm - N/A   Clear
7:54 AM 24.1 °F 19.7 °F 21.9 °F 91% 30.09 in 10.0 mi North 3.5 mph - N/A   Clear
8:54 AM 32.0 °F 28.7 °F 28.9 °F 88% 30.09 in 10.0 mi NNW 3.5 mph - N/A   Clear
9:54 AM 37.0 °F 31.6 °F 30.0 °F 76% 30.10 in 10.0 mi NNW 6.9 mph - N/A   Clear
10:54 AM 44.1 °F 36.5 °F 27.0 °F 51% 30.08 in 10.0 mi NNW 17.3 mph 25.3 mph N/A   Clear
11:54 AM 48.0 °F - 25.0 °F 41% 30.05 in 10.0 mi NNW 13.8 mph - N/A   Clear
12:54 PM 50.0 °F - 24.1 °F 36% 30.00 in 10.0 mi North 12.7 mph 19.6 mph N/A   Clear
1:54 PM 51.1 °F - 26.1 °F 38% 29.97 in 10.0 mi North 11.5 mph - N/A   Clear
2:54 PM 51.1 °F - 24.1 °F 35% 29.98 in 10.0 mi North 15.0 mph 19.6 mph N/A   Clear
3:54 PM 50.0 °F - 21.9 °F 33% 29.97 in 10.0 mi North 8.1 mph 18.4 mph N/A   Clear
4:54 PM 46.0 °F 39.9 °F 16.0 °F 30% 29.99 in 10.0 mi North 13.8 mph - N/A   Clear
5:54 PM 41.0 °F 33.9 °F 10.9 °F 29% 30.04 in 10.0 mi North 12.7 mph 21.9 mph N/A   Clear
6:54 PM 39.0 °F 35.7 °F 12.9 °F 34% 30.03 in 10.0 mi Variable 4.6 mph - N/A   Clear
7:54 PM 37.9 °F 32.7 °F 12.9 °F 36% 30.04 in 10.0 mi North 6.9 mph - N/A   Clear
8:54 PM 37.0 °F 33.3 °F 12.9 °F 37% 30.02 in 10.0 mi Variable 4.6 mph - N/A   Clear
9:54 PM 35.1 °F 31.0 °F 12.9 °F 40% 30.03 in 10.0 mi NNE 4.6 mph - N/A   Clear
10:54 PM 34.0 °F 28.0 °F 10.9 °F 38% 30.03 in 10.0 mi North 6.9 mph - N/A   Clear
11:54 PM 30.9 °F 22.8 °F 10.9 °F 43% 30.03 in 10.0 mi North 9.2 mph - N/A   Clear